Location: Tamazert
(32.6352°N, 5.2072°W)
Time: 05:21:56
(UTC+00:00)

Vanguard 1 Rocket - Pass Details

Date: 11 October 2022
Orbit: 650 x 4225 km, 34.3° (Epoch: 04 December)

Event Time Altitude Azimuth Distance (km) Brightness Sun altitude
Rises 13:36:35 0° 194° (SSW) 7,215 12.7 44.9°
Reaches altitude 10° 13:42:25 10° 183° (S) 6,649 12.6 44.3°
Maximum altitude 14:00:32 28° 133° (SE) 5,969 11.9 42.0°
Drops below altitude 10° 14:19:22 10° 85° (E) 7,072 11.7 39.3°
Sets 14:25:36 0° 75° (ENE) 7,747 11.7 38.4°
